SRR910 EDDP-EKBI

Flight info

Callsign SRR910
Flight time 0h 52m
Altitude 35000
Route PENEM1E/08R PENEM Z131 PENEK DCT RADEL/N0477F360 DCT SONAL DCT LOKSA
Aircraft B77L/H-SDE1E2E3FGHIJ2J3J4J5M1RWXY/LB1D1

Departure

Time 2026-05-07 18:08
Airport Leipzig/Halle Airport (EDDP)

Arrival

Time 2026-05-07 19:01
Airport Billund Airport (EKBI)
Time Latitude Longitude Altitude Speed Heading
2026-05-07 17:40 51.40840 12.23391 474 ft 0 kts 85°
2026-05-07 17:57 51.40839 12.23369 474 ft 2 kts 85°
2026-05-07 17:57 51.40838 12.23345 475 ft 2 kts 85°
2026-05-07 17:58 51.40837 12.23321 475 ft 1 kts 86°
2026-05-07 17:58 51.40836 12.23306 475 ft 2 kts 71°
2026-05-07 17:58 51.40827 12.23288 475 ft 2 kts 22°
2026-05-07 17:58 51.40816 12.23284 475 ft 1 kts 352°
2026-05-07 17:59 51.40813 12.23285 475 ft 0 kts 354°
2026-05-07 18:02 51.40825 12.23283 475 ft 2 kts 354°
2026-05-07 18:02 51.40865 12.23278 475 ft 8 kts 356°
2026-05-07 18:02 51.40933 12.23272 475 ft 10 kts 356°
2026-05-07 18:03 51.41011 12.23274 475 ft 11 kts 12°
2026-05-07 18:03 51.41079 12.23281 475 ft 8 kts 355°
2026-05-07 18:03 51.41116 12.23228 475 ft 7 kts 281°
2026-05-07 18:03 51.41114 12.23131 475 ft 10 kts 265°
2026-05-07 18:04 51.41108 12.23001 475 ft 13 kts 265°
2026-05-07 18:04 51.41101 12.22837 475 ft 16 kts 265°
2026-05-07 18:04 51.41092 12.22641 474 ft 18 kts 266°
2026-05-07 18:04 51.41081 12.22425 472 ft 20 kts 264°
2026-05-07 18:05 51.41070 12.22211 470 ft 21 kts 266°
2026-05-07 18:05 51.41060 12.21950 466 ft 24 kts 266°
2026-05-07 18:05 51.41047 12.21670 461 ft 25 kts 265°
2026-05-07 18:05 51.41034 12.21419 456 ft 23 kts 265°
2026-05-07 18:06 51.41023 12.21159 451 ft 24 kts 266°
2026-05-07 18:06 51.41010 12.20900 446 ft 24 kts 265°
2026-05-07 18:06 51.40998 12.20643 442 ft 20 kts 265°
2026-05-07 18:06 51.41008 12.20509 440 ft 10 kts 316°
2026-05-07 18:07 51.41078 12.20493 439 ft 10 kts 12°
2026-05-07 18:07 51.41148 12.20532 439 ft 10 kts 46°
2026-05-07 18:07 51.41169 12.20645 441 ft 16 kts 83°
2026-05-07 18:07 51.41201 12.21253 451 ft 94 kts 85°
2026-05-07 18:08 51.41269 12.22679 475 ft 164 kts 83°
2026-05-07 18:08 51.41365 12.24685 943 ft 189 kts 84°
2026-05-07 18:08 51.41443 12.26802 1878 ft 196 kts 84°
2026-05-07 18:08 51.41527 12.28917 2535 ft 196 kts 82°
2026-05-07 18:09 51.41653 12.31145 2876 ft 213 kts 82°
2026-05-07 18:09 51.41774 12.33621 3281 ft 230 kts 83°
2026-05-07 18:09 51.41899 12.36337 3683 ft 250 kts 83°
2026-05-07 18:09 51.42354 12.39034 4302 ft 254 kts 59°
2026-05-07 18:10 51.43482 12.41175 5031 ft 255 kts 35°
2026-05-07 18:10 51.45103 12.42380 5689 ft 260 kts 11°
2026-05-07 18:10 51.46915 12.42346 6390 ft 264 kts 348°
2026-05-07 18:10 51.48685 12.41614 7133 ft 265 kts 345°
2026-05-07 18:11 51.50453 12.40826 7813 ft 269 kts 345°
2026-05-07 18:11 51.51658 12.40303 8254 ft 272 kts 345°
2026-05-07 18:11 51.54104 12.39258 9123 ft 276 kts 344°
2026-05-07 18:11 51.55843 12.37927 9712 ft 281 kts 322°
2026-05-07 18:12 51.57125 12.35500 10292 ft 287 kts 299°
2026-05-07 18:12 51.57925 12.32484 10580 ft 304 kts 291°
2026-05-07 18:12 51.58635 12.29182 10876 ft 321 kts 290°
2026-05-07 18:12 51.59372 12.25722 11213 ft 336 kts 292°
2026-05-07 18:13 51.60397 12.22237 11561 ft 350 kts 302°
2026-05-07 18:13 51.61837 12.19007 11928 ft 363 kts 312°
2026-05-07 18:13 51.63674 12.16152 12060 ft 371 kts 322°
2026-05-07 18:13 51.65814 12.13847 12068 ft 372 kts 332°
2026-05-07 18:14 51.68209 12.12148 12067 ft 371 kts 342°
2026-05-07 18:14 51.70735 12.11172 12228 ft 383 kts 352°
2026-05-07 18:14 51.73425 12.10972 12901 ft 382 kts
2026-05-07 18:14 51.76044 12.11414 13056 ft 380 kts
2026-05-07 18:15 51.78706 12.11470 13070 ft 383 kts 356°
2026-05-07 18:15 51.81412 12.11084 13677 ft 391 kts 354°
2026-05-07 18:15 51.84135 12.10675 14031 ft 388 kts 354°
2026-05-07 18:15 51.86878 12.10263 14288 ft 399 kts 354°
2026-05-07 18:16 51.89627 12.09853 15422 ft 396 kts 354°
2026-05-07 18:16 51.92356 12.09458 16657 ft 392 kts 354°
2026-05-07 18:16 51.95086 12.09074 17577 ft 395 kts 354°
2026-05-07 18:16 51.97834 12.08695 18297 ft 403 kts 354°
2026-05-07 18:17 52.00664 12.08312 19103 ft 408 kts 354°
2026-05-07 18:17 52.03492 12.07932 19929 ft 412 kts 354°
2026-05-07 18:17 52.06384 12.07543 20702 ft 417 kts 354°
2026-05-07 18:17 52.09309 12.07149 21442 ft 422 kts 354°
2026-05-07 18:18 52.12201 12.06762 22161 ft 427 kts 354°
2026-05-07 18:18 52.15183 12.06366 22904 ft 431 kts 354°
2026-05-07 18:18 52.18184 12.05969 23604 ft 435 kts 354°
2026-05-07 18:18 52.21210 12.05570 24299 ft 439 kts 354°
2026-05-07 18:19 52.24250 12.05170 24942 ft 444 kts 355°
2026-05-07 18:19 52.27342 12.04756 25570 ft 449 kts 354°
2026-05-07 18:19 52.30498 12.04325 26269 ft 452 kts 355°
2026-05-07 18:19 52.33638 12.04009 26894 ft 457 kts 360°
2026-05-07 18:20 52.36848 12.04410 27414 ft 464 kts
2026-05-07 18:20 52.40045 12.05258 28028 ft 469 kts
2026-05-07 18:20 52.43273 12.06150 28630 ft 473 kts
2026-05-07 18:20 52.46585 12.07068 29242 ft 478 kts
2026-05-07 18:21 52.49945 12.08001 30023 ft 479 kts
2026-05-07 18:21 52.53267 12.08926 30998 ft 476 kts
2026-05-07 18:21 52.56517 12.09831 31831 ft 471 kts
2026-05-07 18:21 52.59727 12.10727 32417 ft 471 kts
2026-05-07 18:22 52.62996 12.11641 32830 ft 472 kts
2026-05-07 18:22 52.65170 12.12250 33116 ft 473 kts
2026-05-07 18:22 52.69498 12.13462 33727 ft 472 kts
2026-05-07 18:22 52.72741 12.14373 34194 ft 471 kts
2026-05-07 18:23 52.75936 12.15271 34618 ft 470 kts
2026-05-07 18:23 52.79174 12.16183 34958 ft 473 kts
2026-05-07 18:23 52.82462 12.17110 35060 ft 476 kts
2026-05-07 18:24 52.88926 12.18937 35072 ft 473 kts
2026-05-07 18:24 52.95437 12.20783 35079 ft 474 kts
2026-05-07 18:25 53.01913 12.22625 35087 ft 473 kts
2026-05-07 18:25 53.08386 12.24471 35069 ft 472 kts
2026-05-07 18:26 53.14796 12.26305 35076 ft 472 kts
2026-05-07 18:26 53.21286 12.28168 35075 ft 472 kts
2026-05-07 18:27 53.27773 12.30035 35078 ft 472 kts
2026-05-07 18:27 53.34275 12.31913 35079 ft 472 kts
2026-05-07 18:28 53.40776 12.33795 35081 ft 472 kts
2026-05-07 18:28 53.47268 12.35682 35076 ft 472 kts 10°
2026-05-07 18:29 53.53722 12.37562 35089 ft 472 kts 10°
2026-05-07 18:29 53.60173 12.39448 35084 ft 471 kts 10°
2026-05-07 18:30 53.66630 12.41342 35084 ft 471 kts 10°
2026-05-07 18:30 53.73101 12.43245 35097 ft 472 kts 10°
2026-05-07 18:31 53.79562 12.45152 35088 ft 471 kts 10°
2026-05-07 18:31 53.86030 12.47066 35102 ft 471 kts 10°
2026-05-07 18:32 53.92478 12.48981 35102 ft 470 kts 10°
2026-05-07 18:32 53.98934 12.50904 35096 ft 469 kts 10°
2026-05-07 18:33 54.05333 12.52816 35102 ft 470 kts 10°
2026-05-07 18:33 54.11713 12.54728 35088 ft 469 kts 10°
2026-05-07 18:34 54.18065 12.56638 35098 ft 469 kts 10°
2026-05-07 18:34 54.24512 12.58391 35097 ft 469 kts
2026-05-07 18:35 54.30972 12.57550 35092 ft 469 kts 347°
2026-05-07 18:35 54.37008 12.53445 35102 ft 472 kts 330°
2026-05-07 18:36 54.42086 12.46382 35110 ft 475 kts 313°
2026-05-07 18:36 54.46314 12.37668 35115 ft 477 kts 310°
2026-05-07 18:37 54.50503 12.28860 35119 ft 476 kts 310°
2026-05-07 18:37 54.54673 12.20061 35120 ft 475 kts 310°
2026-05-07 18:38 54.58834 12.11249 35111 ft 475 kts 310°
2026-05-07 18:38 54.60912 12.06838 34840 ft 481 kts 311°
2026-05-07 18:38 54.63011 12.02374 34339 ft 481 kts 311°
2026-05-07 18:38 54.65120 11.97879 33750 ft 480 kts 311°
2026-05-07 18:39 54.67202 11.93433 33132 ft 479 kts 311°
2026-05-07 18:39 54.69278 11.88995 32477 ft 478 kts 310°
2026-05-07 18:39 54.71347 11.84560 31833 ft 477 kts 310°
2026-05-07 18:39 54.73439 11.80071 31160 ft 476 kts 310°
2026-05-07 18:40 54.75515 11.75607 30472 ft 476 kts 310°
2026-05-07 18:40 54.77553 11.71216 29781 ft 475 kts 310°
2026-05-07 18:40 54.79609 11.66779 29170 ft 472 kts 310°
2026-05-07 18:40 54.81663 11.62336 28577 ft 468 kts 310°
2026-05-07 18:41 54.83671 11.57987 27991 ft 465 kts 310°
2026-05-07 18:41 54.85676 11.53637 27399 ft 461 kts 310°
2026-05-07 18:41 54.87686 11.49268 26813 ft 457 kts 310°
2026-05-07 18:41 54.89637 11.45018 26233 ft 453 kts 310°
2026-05-07 18:42 54.91610 11.40714 25650 ft 449 kts 310°
2026-05-07 18:42 54.93552 11.36472 25065 ft 446 kts 310°
2026-05-07 18:42 54.95547 11.32103 24468 ft 442 kts 309°
2026-05-07 18:42 54.97482 11.27861 23878 ft 438 kts 309°
2026-05-07 18:43 54.99414 11.23616 23299 ft 434 kts 309°
2026-05-07 18:43 55.01297 11.19474 22725 ft 431 kts 309°
2026-05-07 18:43 55.03160 11.15368 22156 ft 427 kts 308°
2026-05-07 18:43 55.05012 11.11280 21581 ft 424 kts 308°
2026-05-07 18:44 55.06821 11.07280 21019 ft 420 kts 308°
2026-05-07 18:44 55.08617 11.03302 20457 ft 417 kts 308°
2026-05-07 18:44 55.10427 10.99287 19888 ft 414 kts 308°
2026-05-07 18:44 55.12171 10.95412 19338 ft 410 kts 308°
2026-05-07 18:45 55.13922 10.91517 18788 ft 407 kts 308°
2026-05-07 18:45 55.15667 10.87625 18278 ft 403 kts 308°
2026-05-07 18:45 55.17407 10.83742 17773 ft 398 kts 308°
2026-05-07 18:45 55.19101 10.79954 17276 ft 394 kts 308°
2026-05-07 18:46 55.20790 10.76170 16776 ft 391 kts 308°
2026-05-07 18:46 55.22463 10.72417 16276 ft 387 kts 308°
2026-05-07 18:46 55.24158 10.68611 15763 ft 384 kts 308°
2026-05-07 18:46 55.25748 10.65033 15274 ft 381 kts 308°
2026-05-07 18:47 55.27399 10.61313 14765 ft 377 kts 308°
2026-05-07 18:47 55.29013 10.57671 14262 ft 375 kts 308°
2026-05-07 18:47 55.30671 10.53925 13740 ft 372 kts 308°
2026-05-07 18:47 55.32267 10.50310 13254 ft 368 kts 308°
2026-05-07 18:48 55.33833 10.46762 13135 ft 357 kts 308°
2026-05-07 18:48 55.35365 10.43283 13112 ft 358 kts 309°
2026-05-07 18:48 55.36912 10.39766 12663 ft 361 kts 309°
2026-05-07 18:48 55.38436 10.36298 12134 ft 359 kts 309°
2026-05-07 18:49 55.39903 10.32955 11644 ft 357 kts 308°
2026-05-07 18:49 55.41427 10.29474 11146 ft 356 kts 308°
2026-05-07 18:49 55.42929 10.26041 10633 ft 355 kts 308°
2026-05-07 18:49 55.44436 10.22591 10349 ft 346 kts 308°
2026-05-07 18:50 55.45871 10.19301 10283 ft 332 kts 308°
2026-05-07 18:50 55.47252 10.16130 10202 ft 319 kts 308°
2026-05-07 18:50 55.48593 10.13047 10124 ft 307 kts 308°
2026-05-07 18:50 55.49867 10.10115 10073 ft 295 kts 308°
2026-05-07 18:51 55.51101 10.07271 9869 ft 290 kts 308°
2026-05-07 18:51 55.52334 10.04427 9507 ft 289 kts 308°
2026-05-07 18:51 55.53556 10.01605 9135 ft 289 kts 308°
2026-05-07 18:51 55.54793 9.98746 8769 ft 289 kts 308°
2026-05-07 18:52 55.56006 9.95939 8414 ft 288 kts 308°
2026-05-07 18:52 55.57222 9.93122 8061 ft 287 kts 308°
2026-05-07 18:52 55.58448 9.90277 7704 ft 286 kts 308°
2026-05-07 18:52 55.59643 9.87503 7369 ft 282 kts 308°
2026-05-07 18:53 55.60827 9.84750 7037 ft 279 kts 308°
2026-05-07 18:53 55.62012 9.81991 6700 ft 275 kts 308°
2026-05-07 18:53 55.63168 9.79299 6368 ft 272 kts 308°
2026-05-07 18:53 55.64298 9.76660 6049 ft 268 kts 308°
2026-05-07 18:54 55.65432 9.74012 5717 ft 268 kts 308°
2026-05-07 18:54 55.66569 9.71355 5383 ft 267 kts 308°
2026-05-07 18:54 55.67691 9.68729 5032 ft 267 kts 308°
2026-05-07 18:54 55.68827 9.66071 4655 ft 267 kts 307°
2026-05-07 18:55 55.69967 9.63395 4275 ft 264 kts 308°
2026-05-07 18:55 55.71074 9.60796 3914 ft 260 kts 308°
2026-05-07 18:55 55.72173 9.58213 3550 ft 254 kts 308°
2026-05-07 18:55 55.73233 9.55718 3194 ft 248 kts 308°
2026-05-07 18:56 55.74259 9.53292 3015 ft 241 kts 305°
2026-05-07 18:56 55.74868 9.50631 2989 ft 225 kts 279°
2026-05-07 18:56 55.74966 9.47932 2989 ft 212 kts 270°
2026-05-07 18:56 55.74927 9.45395 2992 ft 195 kts 268°
2026-05-07 18:57 55.74853 9.43080 2978 ft 176 kts 266°
2026-05-07 18:57 55.74770 9.40951 2831 ft 166 kts 269°
2026-05-07 18:57 55.74721 9.38926 2634 ft 160 kts 269°
2026-05-07 18:57 55.74669 9.36899 2412 ft 160 kts 269°
2026-05-07 18:58 55.74613 9.34924 2192 ft 159 kts 268°
2026-05-07 18:58 55.74559 9.32961 1972 ft 160 kts 268°
2026-05-07 18:58 55.74501 9.30965 1747 ft 161 kts 268°
2026-05-07 18:58 55.74443 9.28968 1525 ft 159 kts 268°
2026-05-07 18:59 55.74391 9.27003 1284 ft 160 kts 267°
2026-05-07 18:59 55.74317 9.25032 1044 ft 161 kts 268°
2026-05-07 18:59 55.74275 9.23029 829 ft 159 kts 269°
2026-05-07 18:59 55.74212 9.21092 641 ft 156 kts 267°
2026-05-07 19:00 55.74151 9.19183 420 ft 156 kts 268°
2026-05-07 19:00 55.74094 9.17266 254 ft 147 kts 268°
2026-05-07 19:00 55.74051 9.15692 240 ft 104 kts 266°
2026-05-07 19:00 55.74017 9.14683 237 ft 63 kts 266°
2026-05-07 19:01 55.73993 9.13967 232 ft 41 kts 266°
2026-05-07 19:01 55.73980 9.13661 230 ft 14 kts 248°
2026-05-07 19:01 55.73901 9.13588 230 ft 10 kts 187°
2026-05-07 19:01 55.73876 9.13582 230 ft 3 kts 187°
2026-05-07 19:02 55.73847 9.13581 230 ft 4 kts 164°
2026-05-07 19:02 55.73826 9.13623 230 ft 6 kts 107°
2026-05-07 19:02 55.73825 9.13726 230 ft 10 kts 87°
2026-05-07 19:02 55.73828 9.13861 231 ft 10 kts 86°
2026-05-07 19:03 55.73833 9.13982 232 ft 8 kts 85°
2026-05-07 19:03 55.73833 9.14012 232 ft 1 kts 103°
2026-05-07 19:03 55.73822 9.14035 232 ft 3 kts 145°
2026-05-07 19:03 55.73803 9.14051 232 ft 2 kts 160°
2026-05-07 19:04 55.73793 9.14056 232 ft 1 kts 167°
2026-05-07 19:04 55.73785 9.14058 232 ft 0 kts 173°
2026-05-07 19:04 55.73773 9.14059 232 ft 1 kts 175°
2026-05-07 19:04 55.73770 9.14060 232 ft 0 kts 175°